Location: St. Louis
(38.6270°N, 90.1994°W)
Time: 01:29:32
(UTC-06:00)

Transit 4A - Pass Details

Date: 04 December 2021
Orbit: 863 x 981 km, 66.8° (Epoch: 24 January)

Event Time Altitude Azimuth Distance (km) Brightness Sun altitude
Rises 05:53:51 0° 314° (NW) 3,641 - -13.2°
Reaches altitude 10° 05:57:17 10° 295° (WNW) 2,708 - -12.6°
Exits shadow 05:59:17 15° 278° (W) 2,349 9.4 -12.2°
Maximum altitude 06:01:13 17° 257° (WSW) 2,225 9.4 -11.8°
Drops below altitude 10° 06:05:10 10° 218° (SW) 2,721 10.2 -11.1°
Sets 06:08:39 0° 199° (SSW) 3,667 11.0 -10.5°
